Theta_e
273 274 274 275 275 276 277 278 278 278 279 279 279 279 280 281 280 280 279 279 280 280 280 280 280 280 280 280 280 280 280 280 280 280 280 281 280 279 280 280 279 278 278 279 279 280 280 280 280 277 277 278 278 278 280 284 281 281 281 282 281 281 286
273 273 273 273 274 275 276 276 277 278 278 278 278 278 279 280 279 279 280 280 279 279 280 279 279 279 279 280 280 280 280 280 280 279 279 279 280 280 280 280 279 279 278 277 278 280 279 279 280 280 277 278 277 277 278 279 280 280 280 281 281 280 280
272 272 273 273 273 273 274 274 275 276 276 276 277 277 278 279 279 279 279 279 280 280 281 280 279 279 280 280 279 279 279 280 280 280 280 279 279 279 280 279 279 279 278 277 277 278 278 278 279 279 280 277 278 278 278 278 279 280 280 280 280 280 281
272 272 272 272 272 272 272 273 273 274 275 275 276 277 277 278 278 279 279 279 280 280 281 280 280 280 281 281 280 280 280 281 281 281 281 281 280 280 280 279 279 280 279 278 277 278 278 278 278 279 279 280 278 277 277 277 278 279 279 279 280 279 280
271 271 271 271 271 271 271 272 272 272 272 273 274 275 276 276 277 277 278 278 279 280 280 280 280 281 281 281 279 280 280 280 280 280 280 280 280 280 281 281 281 280 280 279 277 277 278 278 278 278 278 278 279 278 276 276 277 278 278 279 279 279 280
269 270 270 270 270 271 271 271 271 271 272 273 274 274 275 275 276 277 277 278 278 279 280 279 279 280 280 280 279 279 280 280 280 280 280 279 280 280 280 280 280 280 280 279 278 278 276 277 277 278 278 279 279 279 278 276 276 276 277 277 278 278 279
268 269 269 269 269 270 269 269 269 270 271 271 272 273 274 275 276 276 277 277 278 277 277 277 277 276 276 276 276 276 276 276 277 278 279 280 280 280 279 279 279 279 278 278 278 278 277 276 277 278 277 279 280 280 280 278 277 274 275 276 277 277 279
267 267 268 268 268 268 268 267 268 268 269 270 271 272 273 274 275 275 275 275 275 275 275 275 275 275 275 275 275 275 275 275 275 275 275 276 277 278 279 278 278 278 278 277 277 277 276 276 276 276 277 278 279 278 278 279 278 276 276 276 277 277 277
267 266 266 266 266 266 266 266 266 267 267 269 271 273 273 273 274 273 273 273 272 273 273 273 273 273 274 274 275 275 275 275 275 273 273 274 275 274 275 276 278 278 277 277 277 276 277 276 275 275 275 276 276 276 276 278 278 277 278 278 276 276 278
266 265 264 264 264 264 264 264 265 267 270 272 272 273 273 273 273 272 272 271 271 271 272 271 272 272 273 273 273 273 273 273 272 273 272 272 273 273 274 274 274 275 276 276 276 276 276 275 275 275 275 275 276 277 277 277 277 276 277 277 276 277 277
264 263 264 264 262 262 262 263 264 268 272 273 274 273 273 272 271 271 271 270 270 269 270 270 271 271 271 271 271 270 270 270 270 270 271 272 273 274 274 273 273 273 274 274 275 276 276 275 275 275 276 275 276 277 276 276 277 276 276 275 274 273 276
263 263 263 262 261 261 262 262 265 270 272 273 274 274 272 270 270 270 270 269 268 268 267 267 268 268 268 269 268 267 265 266 268 269 270 271 272 273 274 275 274 273 273 273 273 273 274 275 275 276 276 276 276 276 276 276 277 276 276 275 274 274 273
263 262 262 261 261 261 262 261 265 270 272 272 273 273 272 269 269 269 268 267 266 264 264 265 267 266 265 266 267 266 263 263 264 268 270 271 271 271 272 273 274 275 273 274 273 273 273 273 274 275 276 277 277 278 276 276 276 276 276 276 275 275 275
263 263 262 262 261 261 261 261 265 269 271 271 272 273 271 268 268 268 266 264 263 262 265 267 266 264 262 261 262 263 263 265 267 267 268 268 266 266 269 271 271 272 272 273 273 273 272 274 274 273 275 276 278 276 275 275 275 276 276 275 275 277 277
262 263 264 263 261 260 261 262 267 269 270 271 271 272 269 265 264 264 264 263 263 263 266 267 266 263 261 261 261 264 267 268 268 269 269 268 267 267 268 268 268 268 270 271 271 271 271 272 273 273 274 276 277 277 277 277 276 277 277 277 278 277 277
263 263 263 263 262 261 261 262 266 268 269 270 271 271 266 265 265 265 265 263 263 265 267 267 264 261 262 261 261 265 268 269 268 267 267 265 265 265 265 266 270 272 272 270 270 270 270 271 272 275 274 274 275 276 277 278 278 277 277 275 274 273 275
262 263 263 263 262 261 261 261 264 267 268 269 270 269 265 265 265 265 264 262 263 266 266 265 266 265 263 262 262 265 268 269 268 265 265 264 262 262 262 263 265 269 270 271 272 272 273 273 274 274 275 275 275 274 275 274 273 272 275 273 272 272 273
262 263 264 263 261 261 261 260 262 265 268 269 269 268 265 264 263 263 264 264 265 266 266 265 266 265 263 262 262 266 268 269 267 265 265 263 261 259 259 260 263 263 263 268 269 269 270 270 271 271 272 272 273 274 273 271 269 271 272 270 271 271 272
262 262 263 262 261 263 261 260 261 264 267 268 269 268 265 264 263 261 262 263 264 264 263 262 263 263 262 262 263 266 268 268 266 264 263 261 260 259 258 260 262 261 261 261 261 261 262 263 265 266 266 267 270 271 272 272 271 272 271 270 270 270 271
261 261 261 262 262 261 261 260 260 262 266 267 268 269 266 264 262 261 260 260 260 259 259 259 258 260 261 263 264 266 267 267 267 264 260 259 259 259 259 262 260 260 260 260 260 260 261 262 263 264 265 266 267 269 270 271 272 273 273 271 271 271 271
260 260 261 262 262 262 261 261 260 261 265 266 267 268 265 262 260 258 258 257 257 256 256 256 256 256 259 260 263 265 266 266 266 264 259 259 259 261 262 261 258 258 260 258 259 260 260 261 262 262 263 264 265 267 268 268 266 267 268 269 269 270 271
259 259 260 261 261 262 261 261 262 260 262 265 266 268 266 262 261 260 256 255 254 255 255 254 255 254 258 260 263 264 264 264 264 263 259 260 263 264 262 258 257 256 256 256 257 257 258 259 260 260 261 262 262 262 262 262 263 264 265 266 268 268 268
258 259 259 260 261 261 261 260 260 262 260 263 265 267 266 265 262 262 257 254 252 251 254 252 253 256 259 261 263 263 263 262 262 259 259 262 262 261 258 257 255 256 254 254 255 256 256 256 257 257 257 257 258 259 260 260 262 263 264 266 268 270 270
259 260 260 260 260 260 260 259 259 260 261 261 263 265 265 264 263 262 257 254 250 252 251 251 253 257 261 261 261 262 261 260 258 258 260 259 257 256 256 254 253 252 252 253 253 253 253 253 254 255 255 256 257 258 258 260 261 262 263 264 265 267 268
259 258 259 259 258 258 258 258 257 257 260 261 262 263 264 263 261 259 258 254 252 253 252 256 259 260 260 259 260 259 258 256 255 257 256 255 255 254 251 252 251 251 251 250 250 251 251 252 253 254 255 256 256 258 258 258 259 260 261 262 262 263 265
258 258 258 258 257 256 256 257 256 256 257 259 260 260 261 261 258 257 257 256 254 255 255 256 257 256 255 255 255 254 252 252 253 254 254 254 254 250 250 250 249 250 249 248 249 250 250 251 252 253 254 255 256 255 255 256 256 256 256 258 258 259 260
257 257 256 256 255 255 255 255 255 254 254 257 256 255 255 254 254 255 255 252 251 252 251 253 254 254 254 254 254 254 254 253 253 252 251 250 249 250 249 250 248 249 248 249 248 249 249 250 251 252 253 252 253 252 253 255 255 254 254 256 256 257 257
255 256 255 253 253 253 253 253 253 252 253 256 256 254 252 251 249 246 246 247 246 246 250 249 253 252 250 249 249 248 247 246 248 249 249 248 248 248 250 252 252 251 248 247 248 248 249 250 250 249 250 251 251 251 252 253 253 253 253 254 255 254 255
256 256 253 253 252 251 251 251 251 252 258 260 260 257 253 250 247 247 246 251 254 250 249 248 247 246 247 246 247 246 245 245 245 247 247 247 247 246 247 246 245 246 247 247 248 248 248 248 249 248 250 249 249 250 250 251 251 252 251 252 253 252 254
258 256 254 252 252 252 249 248 251 258 261 262 260 260 259 258 258 255 251 253 254 252 245 244 244 244 245 245 244 244 245 245 245 245 245 246 249 248 247 247 246 246 246 248 248 247 247 247 248 247 248 248 248 249 249 251 251 250 251 250 250 251 252
262 262 259 255 252 254 258 257 257 257 261 260 260 259 259 258 257 256 254 254 249 246 244 245 244 244 244 245 244 244 244 244 244 245 244 245 245 245 247 247 246 247 248 248 247 247 247 247 247 247 247 247 248 248 248 248 250 250 249 249 250 250 251
261 261 260 259 258 255 252 255 256 257 260 259 259 258 257 258 257 257 254 253 252 245 243 242 242 242 242 243 243 244 244 244 243 243 243 243 244 244 246 246 245 247 246 247 246 246 247 247 246 246 247 247 247 248 247 247 247 248 248 249 249 250 251
258 258 258 259 259 259 257 256 256 257 258 258 258 257 254 255 255 253 252 251 246 242 242 242 242 241 242 242 242 241 242 242 242 242 243 243 243 243 244 245 246 247 246 247 247 246 245 246 246 246 247 247 247 247 246 247 247 247 248 248 248 249 250
256 255 255 255 255 255 255 255 256 256 255 256 256 256 255 254 253 255 253 250 243 242 242 242 242 242 242 242 243 242 243 242 242 243 242 243 242 243 243 244 245 245 245 245 245 244 245 246 245 246 245 245 245 246 246 245 246 246 246 246 247 247 247
249 252 253 251 252 253 253 253 253 253 254 254 253 253 253 253 245 245 245 244 243 243 242 242 243 242 242 242 241 242 243 242 241 241 242 242 242 242 242 243 244 245 245 244 243 244 244 245 246 244 246 246 245 245 244 245 246 246 247 246 246 246 247
245 245 252 253 252 252 252 253 252 252 254 254 254 253 251 243 241 242 242 243 243 242 244 243 243 242 241 241 241 241 241 240 241 241 240 240 241 242 242 242 243 244 244 244 243 244 245 245 244 244 245 244 244 244 245 245 245 246 246 247 246 247 247
Wind_Speed
8 7 8 8 9 9 8 8 8 7 7 7 8 8 7 8 9 7 5 3 4 4 3 3 4 4 4 4 4 3 3 3 3 3 4 4 5 4 4 4 5 9 11 5 3 4 2 3 2 1 5 6 6 6 6 9 8 9 9 9 9 9 16
8 8 8 7 7 8 8 8 8 8 7 8 8 8 7 7 8 8 8 7 6 5 4 3 3 3 3 3 5 4 4 3 2 3 3 4 4 4 4 4 5 8 8 10 3 5 3 3 4 6 3 8 7 6 5 7 7 6 7 8 8 8 9
9 9 8 8 7 7 6 6 7 6 7 7 7 7 7 7 6 7 7 7 6 6 6 6 5 5 4 3 3 3 3 2 3 3 3 4 3 4 5 4 5 5 9 9 7 4 5 3 3 5 5 4 6 7 8 9 8 8 6 7 8 8 7
9 8 8 8 8 8 7 7 7 7 6 7 7 6 7 6 6 6 5 4 5 6 5 5 4 4 4 5 5 4 4 3 2 3 3 4 4 3 4 3 3 5 6 6 8 5 4 3 4 6 4 3 4 7 7 7 8 7 8 7 6 8 8
8 8 8 8 8 8 8 7 8 8 8 7 6 7 7 7 6 6 6 5 5 5 4 4 4 4 4 4 5 5 4 3 4 3 3 3 4 4 4 4 4 5 5 7 9 7 3 3 3 3 3 3 5 4 4 5 7 8 9 8 7 7 7
7 8 8 8 8 8 7 8 8 8 8 7 8 8 8 7 7 6 5 4 3 3 4 3 3 3 4 4 4 4 4 3 3 4 5 5 5 5 4 5 6 6 7 7 9 8 7 4 5 5 5 4 4 6 6 4 5 5 5 6 6 6 6
7 7 7 8 8 8 7 8 8 8 8 9 9 8 8 8 7 6 5 3 4 6 7 8 8 8 8 8 7 7 8 8 8 7 5 5 6 6 6 7 7 7 8 9 9 9 8 7 6 6 9 6 6 8 8 8 6 5 4 5 7 8 6
7 6 6 7 7 7 7 7 8 6 8 8 8 8 8 9 6 6 6 6 6 6 6 7 7 7 7 7 7 7 7 7 6 6 6 7 7 6 5 6 7 7 7 8 9 10 9 8 7 7 7 6 5 7 9 9 8 9 6 6 6 8 8
7 6 7 7 6 6 6 6 6 5 7 8 8 8 6 8 4 4 5 5 6 5 6 6 6 6 6 8 11 13 11 11 10 7 6 7 7 7 6 7 5 6 7 7 8 9 8 8 8 8 7 7 8 9 11 8 8 9 10 8 6 6 7
6 5 5 6 5 5 6 5 5 9 16 13 8 6 6 6 3 3 3 5 5 6 6 6 5 6 11 12 12 13 14 14 14 13 9 7 7 7 7 6 6 6 6 6 8 9 8 9 9 9 9 9 9 8 7 10 10 11 11 10 10 9 7
5 5 4 4 4 6 6 5 6 14 14 14 14 8 5 3 4 4 3 4 4 4 5 4 4 4 7 9 12 12 16 15 15 14 14 13 12 10 7 6 7 7 6 7 7 6 8 9 10 10 8 8 8 8 9 9 9 9 9 10 10 12 8
5 4 5 3 4 4 5 5 10 14 14 13 13 11 5 4 4 4 4 5 4 3 3 3 4 5 6 7 9 7 6 8 11 13 13 13 13 12 12 11 8 7 7 6 7 8 8 7 8 10 8 8 7 8 8 8 9 10 10 10 11 10 11
4 5 4 2 4 5 5 4 11 13 13 12 12 13 8 4 4 4 4 4 3 3 4 3 5 5 6 6 11 7 5 6 7 10 12 12 12 11 12 13 15 15 10 8 7 7 9 8 8 9 7 6 7 7 10 8 9 9 10 10 11 11 10
5 5 3 2 2 4 5 5 10 13 13 12 12 12 8 4 5 4 3 3 4 3 3 4 5 5 4 4 5 5 6 6 6 6 5 5 4 4 7 11 12 13 15 13 8 7 8 8 7 9 11 11 10 9 8 8 10 9 10 11 12 11 11
4 4 3 2 1 3 5 5 11 13 13 13 12 12 8 5 5 4 2 4 2 2 1 5 5 4 4 5 5 6 10 9 8 8 7 7 8 8 8 7 6 5 4 7 8 8 9 9 9 10 11 11 9 10 10 9 10 10 10 11 10 11 10
4 4 4 1 2 2 4 5 12 13 13 13 12 11 4 4 5 3 3 4 3 2 2 4 4 4 5 5 5 11 18 14 10 9 9 6 7 6 6 6 9 13 15 12 11 10 11 10 12 16 13 14 13 11 10 11 11 11 11 11 11 12 9
4 4 4 1 0 1 3 3 10 13 13 13 13 7 3 4 4 4 3 4 4 1 3 3 5 6 5 6 6 13 18 18 16 8 9 6 5 4 5 6 7 13 18 20 22 23 24 24 23 22 22 22 24 17 14 10 9 8 8 11 12 12 11
5 4 3 0 1 1 1 2 8 13 13 13 13 8 3 3 3 3 3 3 5 3 7 9 12 9 7 8 7 16 18 18 14 9 9 7 7 9 7 7 7 5 8 17 21 23 24 25 24 24 23 23 22 22 16 8 10 10 10 10 10 10 10
4 2 2 1 3 3 1 2 5 11 13 13 13 8 1 1 2 3 4 4 6 8 7 8 10 15 13 11 13 19 17 17 14 9 8 8 8 8 8 8 7 9 11 10 10 11 11 13 15 13 12 12 18 19 16 10 10 9 10 10 11 12 10
3 4 3 3 1 1 2 0 2 6 13 14 12 14 5 5 7 6 7 7 7 6 7 7 7 10 15 17 17 17 17 16 16 10 9 8 7 8 9 7 9 11 11 10 9 10 10 10 9 9 9 9 10 10 9 11 11 10 11 11 10 10 11
3 4 5 5 4 2 2 1 2 4 13 13 13 12 11 6 6 5 6 5 7 5 6 6 6 5 11 15 16 15 15 15 14 13 9 7 6 8 12 14 8 11 13 9 9 9 10 9 9 8 8 8 8 8 7 10 13 13 12 12 11 11 11
3 5 4 4 2 3 3 3 5 4 9 12 13 10 14 6 5 7 5 6 5 5 5 5 6 5 9 14 14 14 13 14 13 15 8 8 15 17 17 11 8 7 8 8 8 8 8 8 8 9 9 10 11 11 12 11 12 13 14 13 11 11 12
5 4 5 3 3 2 5 4 4 8 6 10 14 9 10 10 9 12 8 6 5 4 4 4 5 6 11 12 13 12 13 13 15 10 9 16 16 16 16 12 7 9 7 7 8 7 8 9 9 10 10 11 11 11 13 13 12 12 13 13 14 14 12
4 3 2 1 1 4 4 4 4 5 8 8 12 8 11 11 12 12 5 5 4 3 3 3 5 4 11 12 12 13 12 13 12 9 15 15 16 15 13 7 8 7 7 8 7 7 8 8 9 9 10 10 11 12 13 13 13 12 13 13 13 15 16
3 3 3 2 3 4 4 3 3 3 6 10 10 9 10 12 13 12 10 5 4 5 3 7 9 11 11 12 12 13 11 9 11 14 14 14 15 12 5 6 6 7 6 7 7 7 7 7 8 8 9 11 11 12 12 12 12 12 12 14 14 14 13
3 3 3 1 4 4 4 3 3 4 4 7 6 7 9 12 13 11 10 8 6 9 10 9 9 10 11 9 9 7 5 6 8 13 15 14 13 5 6 5 6 6 7 7 7 7 7 7 8 8 9 11 10 10 10 11 12 12 12 13 14 15 14
3 4 2 4 4 4 3 2 4 5 4 5 2 4 6 6 6 8 7 6 4 5 5 6 6 7 9 9 12 12 11 9 10 7 7 7 5 6 5 5 5 6 6 6 6 7 6 6 7 7 9 9 10 10 10 10 12 11 11 12 11 12 12
3 3 3 4 3 3 3 2 4 5 5 4 1 2 6 4 4 4 3 3 3 2 4 2 7 8 6 5 5 5 5 5 6 7 7 7 6 6 7 7 9 8 4 5 5 5 5 6 7 7 8 8 8 9 9 10 10 11 12 11 11 11 12
4 2 3 2 1 1 1 3 3 4 8 6 4 4 5 4 2 1 1 4 5 4 4 3 5 4 5 5 5 4 5 5 6 6 6 6 6 6 6 5 5 6 6 6 6 6 7 8 7 7 7 8 8 8 9 9 9 10 10 11 10 10 11
1 3 3 4 2 3 3 2 1 7 10 6 7 7 8 5 6 8 4 6 7 5 4 4 4 5 5 5 5 5 5 5 5 5 6 5 6 7 6 5 5 6 6 7 6 5 5 7 7 7 7 8 8 9 8 10 12 10 10 10 10 10 11
5 5 5 4 1 2 6 3 5 7 7 6 7 8 8 7 7 8 8 6 6 4 4 5 5 5 5 4 5 4 5 4 4 5 5 5 5 5 6 7 5 6 7 8 6 4 5 6 6 6 7 8 8 9 9 9 8 9 9 9 9 10 11
5 5 5 5 4 4 3 4 5 6 6 6 7 9 8 7 9 11 10 9 8 5 5 5 4 3 4 4 4 3 4 4 5 4 5 5 5 5 5 6 6 7 7 6 5 5 7 6 6 6 6 7 8 10 8 8 9 9 9 9 9 10 11
5 6 7 6 6 7 5 4 3 4 6 7 8 8 7 6 7 8 9 9 6 5 4 3 3 2 2 2 2 3 3 3 3 4 5 4 5 5 5 5 6 8 6 5 6 6 6 7 6 6 8 8 8 8 8 9 9 8 8 9 9 9 11
5 6 5 6 7 7 7 7 6 7 6 7 8 9 6 2 2 6 8 7 3 2 2 2 1 1 1 1 1 2 2 2 3 4 3 4 4 5 4 5 6 6 6 5 5 5 6 6 6 7 7 6 6 7 7 8 8 8 9 8 9 9 10
0 4 5 3 3 4 4 4 5 4 4 4 5 6 6 6 5 3 3 3 1 2 1 2 1 1 1 1 1 2 1 2 3 3 3 4 5 5 5 5 5 5 5 5 5 6 5 6 6 6 7 7 7 7 8 7 8 8 8 9 9 10 10
3 1 1 1 2 2 2 3 3 3 3 3 5 6 5 2 2 2 2 1 1 1 1 1 1 1 1 1 2 2 2 2 2 3 4 4 4 4 5 5 6 7 5 4 6 6 5 5 6 6 7 6 6 6 8 7 8 8 9 10 9 9 9
Wind_Direction
324 327 329 327 326 325 327 332 337 337 338 343 341 342 342 344 347 337 315 308 304 301 288 269 253 253 252 244 251 249 252 247 245 248 248 243 241 250 248 234 247 257 267 268 252 263 224 285 347 245 206 208 210 209 214 214 213 206 207 212 217 220 226
326 329 324 324 322 322 331 335 338 338 343 341 339 334 340 342 345 348 345 344 334 318 311 301 289 279 274 256 241 246 245 243 256 247 254 256 241 248 251 227 242 260 266 267 243 274 290 276 263 271 190 199 208 223 211 217 217 211 205 211 213 218 225
326 321 327 326 321 322 324 328 331 330 335 331 328 327 329 332 334 334 333 335 332 338 338 345 344 336 334 328 309 281 260 252 251 251 251 256 254 257 256 249 241 256 264 268 264 223 261 240 274 245 255 213 218 215 206 213 217 215 214 213 209 216 224
323 327 332 330 325 331 332 335 333 334 329 320 316 319 320 322 326 321 321 316 320 328 333 329 332 327 337 344 346 337 338 310 283 263 264 264 261 265 271 272 272 262 265 269 274 247 243 260 238 268 264 262 222 220 222 214 219 217 221 219 214 218 223
329 330 330 326 331 332 339 336 341 337 327 320 326 339 339 335 330 324 318 319 318 318 318 320 322 322 323 303 298 302 301 307 309 304 290 273 273 267 275 278 282 280 282 282 271 276 268 282 276 257 276 279 280 277 242 236 217 211 216 222 222 224 228
333 330 326 331 332 337 336 346 339 333 322 340 349 343 332 319 307 300 294 299 314 326 336 345 342 359 9 8 1 351 352 326 277 260 253 257 257 257 258 262 261 262 267 265 270 270 273 270 267 281 271 277 278 280 277 261 247 242 225 218 231 232 228
329 327 331 334 333 334 345 345 338 325 347 351 338 323 311 312 305 297 299 312 353 19 24 27 30 30 27 30 28 30 24 16 10 356 331 279 262 251 248 248 243 245 246 251 259 263 258 261 253 254 263 259 262 268 265 267 265 248 249 232 220 234 230
329 326 341 330 329 332 348 343 331 335 350 331 315 311 320 319 334 4 3 22 37 31 34 34 30 27 23 29 27 33 26 25 10 7 0 354 351 327 276 243 241 238 241 242 243 248 255 246 255 252 253 257 257 263 263 256 262 266 250 235 232 229 228
325 331 334 323 325 336 347 338 325 341 330 307 304 309 318 317 339 8 1 25 27 27 38 32 27 17 23 27 29 30 29 25 22 12 357 346 350 343 340 327 290 246 236 239 239 248 245 251 249 247 245 241 234 234 245 258 259 265 262 259 249 244 235
317 340 321 321 327 347 339 324 324 322 317 318 313 304 308 306 347 5 14 42 22 16 28 21 27 19 27 29 30 26 21 15 8 3 355 341 341 333 328 324 320 315 294 259 245 240 245 249 248 247 241 243 239 240 246 250 248 252 258 263 258 254 235
323 319 316 319 340 341 326 316 317 318 322 323 323 319 309 22 10 8 35 56 36 12 22 15 27 19 22 24 27 19 12 4 356 349 343 339 334 326 318 313 310 303 301 306 298 278 253 248 253 252 247 243 245 239 235 241 242 247 248 247 249 253 252
300 302 305 318 346 328 313 313 315 325 326 329 333 332 30 29 16 356 36 51 39 22 15 354 38 27 28 25 22 15 5 352 342 336 331 332 332 329 323 314 305 298 296 297 291 294 293 285 265 263 253 247 245 248 246 239 240 242 241 245 244 245 248
295 294 289 337 339 320 316 317 312 324 332 337 340 337 21 21 2 1 48 45 31 20 358 360 51 38 28 36 20 3 349 336 323 322 322 327 329 327 323 319 320 323 321 312 302 298 293 288 304 306 296 279 262 248 250 242 245 242 245 246 247 246 252
290 286 296 323 335 318 315 318 306 330 337 342 342 341 13 26 2 342 47 46 30 357 341 56 55 46 26 21 21 345 333 316 305 299 301 306 314 316 320 319 316 320 320 317 316 308 298 306 307 292 292 298 306 297 271 255 249 241 246 246 247 249 250
296 292 294 290 342 334 318 306 325 337 341 344 344 355 20 11 346 321 13 35 13 332 342 83 69 58 47 35 12 340 344 334 333 345 351 8 2 355 341 331 311 285 312 350 341 333 327 325 328 321 319 315 297 280 282 280 274 264 255 251 251 251 244
290 295 289 273 48 340 316 317 336 340 342 345 343 7 19 354 322 345 18 354 317 301 56 68 71 65 54 43 12 351 348 346 351 358 347 6 356 352 338 336 324 345 348 340 332 324 318 316 314 316 317 318 318 312 299 285 279 270 263 260 253 249 238
292 285 286 293 68 323 306 330 334 341 341 346 344 12 26 337 330 346 356 315 307 326 71 81 77 65 47 33 10 346 344 341 343 349 341 350 353 349 343 329 329 340 341 334 329 326 323 321 320 319 318 318 319 314 313 319 316 303 292 265 255 247 241
281 273 281 231 149 259 352 337 335 340 342 346 346 356 16 332 342 313 344 328 319 15 49 36 38 40 40 18 355 342 340 337 340 341 336 348 0 357 346 333 323 341 340 335 326 324 322 319 318 319 319 318 316 315 315 307 295 297 301 291 284 275 258
278 296 314 253 157 284 42 3 334 338 342 347 345 351 99 302 303 311 325 11 30 39 44 36 29 24 12 1 344 342 337 339 345 346 5 14 5 347 343 314 345 351 336 331 324 315 316 313 316 315 312 308 306 307 307 296 286 285 276 273 271 272 277
338 323 296 295 224 151 117 46 329 328 348 344 348 340 35 37 49 36 37 32 27 24 27 32 27 16 360 351 343 337 338 344 346 359 29 7 354 334 323 346 356 338 331 322 316 305 307 304 302 303 299 300 303 303 303 297 286 282 271 258 258 260 259
300 287 274 260 234 171 157 138 348 340 351 347 347 6 79 47 62 50 46 39 30 27 27 19 18 9 347 341 333 335 347 347 353 3 17 346 321 336 337 350 344 338 334 329 327 324 323 319 319 315 308 304 303 298 324 347 343 338 334 323 308 288 270
270 271 276 286 277 185 139 67 32 17 354 348 348 6 86 75 58 73 55 51 24 22 32 18 9 341 332 331 334 349 352 360 7 10 358 341 354 349 353 358 350 343 351 340 338 329 327 323 325 333 342 346 346 345 340 332 330 327 318 309 300 298 301
257 254 261 247 270 95 82 74 52 7 1 347 344 359 42 54 64 57 58 56 36 31 11 8 336 305 320 340 355 359 8 15 17 9 356 8 3 3 3 7 358 357 348 346 336 335 340 351 349 347 344 337 335 333 331 323 315 312 309 305 306 302 296
269 252 254 237 123 77 65 51 51 13 2 355 345 5 36 51 46 51 60 56 65 42 1 336 287 312 351 6 6 13 19 22 17 12 19 17 12 12 13 5 4 352 355 348 344 357 353 350 343 340 336 334 332 329 325 323 318 316 315 317 318 317 311
293 348 331 348 68 63 48 30 58 18 6 2 351 14 12 50 49 42 45 49 26 18 359 338 358 10 14 15 15 22 29 26 20 20 24 18 16 10 13 6 5 360 6 359 360 353 344 337 335 335 329 331 326 323 330 327 328 326 330 330 326 319 314
351 348 311 14 66 54 26 2 63 18 9 343 16 22 31 36 38 33 28 28 11 8 0 357 8 20 22 21 20 25 24 24 21 18 21 13 17 359 11 5 11 6 12 358 353 345 337 330 337 334 333 327 328 338 334 338 334 335 334 336 334 326 319
10 333 339 48 44 44 8 16 45 18 357 330 24 41 70 53 45 33 30 21 357 3 344 341 10 36 24 26 26 30 25 26 20 10 16 355 4 4 5 8 20 12 3 348 342 336 328 339 330 329 333 337 346 339 335 338 335 332 327 329 326 318 310
334 318 42 47 28 35 0 12 44 0 334 318 53 56 86 74 62 43 17 356 316 352 341 358 36 41 15 18 14 22 15 10 17 5 12 356 357 4 356 3 17 6 359 335 331 312 331 336 333 343 335 342 341 333 330 333 333 332 327 328 324 324 314
271 51 70 71 75 97 354 38 16 324 305 303 41 47 111 101 94 105 338 345 7 55 8 32 30 47 20 22 16 19 16 3 10 2 6 351 351 2 351 354 14 5 352 338 334 338 348 338 337 336 337 340 336 329 331 324 330 329 329 328 327 312 313
116 114 78 62 49 111 111 147 284 298 306 352 19 18 17 46 39 53 38 24 33 80 49 35 47 45 31 20 14 20 14 8 7 359 1 350 357 355 348 357 5 351 337 334 327 334 348 336 339 333 340 338 332 326 326 334 334 326 330 326 321 319 316
344 60 93 104 111 108 106 51 356 321 335 16 24 26 9 32 38 45 43 39 55 40 58 40 37 35 27 22 13 16 12 8 10 359 355 348 349 346 351 352 352 334 333 327 321 338 346 334 331 334 338 337 329 328 331 330 327 326 321 318 322 326 316
15 14 51 80 93 100 55 35 10 329 0 19 17 38 23 19 40 38 42 43 58 57 45 49 39 33 21 22 15 2 6 4 6 358 346 343 348 347 348 349 340 333 329 320 335 349 344 333 329 334 336 330 328 333 330 326 329 323 321 322 325 323 323
20 19 21 41 45 54 73 75 37 14 15 19 14 28 37 21 42 52 53 53 44 58 39 26 37 33 12 19 6 347 1 354 357 352 341 342 348 341 335 337 325 329 321 333 344 351 335 325 326 332 332 327 328 330 325 327 322 321 322 320 320 324 328
50 47 40 38 34 31 32 25 20 27 24 19 24 16 21 38 64 65 66 70 63 57 48 10 48 16 3 349 357 350 352 351 347 344 335 334 329 322 318 323 323 328 323 329 337 338 323 322 326 333 328 325 328 322 322 318 320 323 324 325 327 326 323
144 73 65 56 42 29 37 38 28 27 12 28 44 26 21 52 48 48 21 32 68 64 42 24 354 15 327 349 346 321 347 337 332 330 333 324 316 312 319 322 323 317 316 320 331 331 317 322 334 326 325 328 327 325 324 324 324 326 328 328 324 320 315
149 137 91 89 72 37 21 24 29 0 320 32 38 44 50 42 30 47 24 44 13 83 16 25 335 5 321 327 316 322 332 312 322 311 308 298 299 307 311 313 309 306 312 323 328 315 320 332 329 321 322 321 319 318 320 319 321 325 328 324 319 314 319